Weather History for Zacatecas Airport, Mexico

Change the Weather History Date:

Saturday, January 12, 2013

  Actual Average Record
Temperature  
Mean Temperature 56 °F -  
Max Temperature 69 °F 65 °F 71 °F (1999)
Min Temperature 42 °F 33 °F 24 °F (1997)
Degree Days  
Heating Degree Days 10    
Growing Degree Days 6 (Base 50)    
Moisture  
Dew Point 34 °F    
Average Humidity 48    
Maximum Humidity 76    
Minimum Humidity 27    
Precipitation  
Precipitation 0.00 in - - ()
Sea Level Pressure  
Sea Level Pressure 30.16 in    
Wind  
Wind Speed 13 mph ()    
Max Wind Speed 34 mph    
Max Gust Speed 33 mph    
Visibility 10.0 miles    
Events      
Averages and records for this station are not official NWS values.
T = Trace of Precipitation, MM = Missing Value Source: Averaged Metar Reports

Daily Weather History Graph

Daily Weather History Graph

Search for Another Location

Airport:

Trip Planner

Search our weather history database for the weather conditions in past years. The results will help you decide how hot, cold, wet, or windy it might be!

Date:

Astronomy

Jan. 12, 2013 Rise Set
Actual Time 7:33 AM CST 6:25 PM CST
Civil Twilight 7:09 AM CST 6:49 PM CST
Nautical Twilight 6:41 AM CST 7:16 PM CST
Astronomical Twilight 6:14 AM CST 7:44 PM CST
Moon 8:05 AM CST (1/12) 7:42 PM CST (1/12)
Length of Visible Light 11h 39m
Length of Day
10h 51m
New Moon, 1% of the Moon is Illuminated
Jan 12
New Moon
Jan 18
First Quarter
Jan 26
Full
Feb 3
Last Quarter
Feb 10
New

Hourly Weather History & Observations

Time (CST) Temp. Windchill Dew Point Humidity Pressure Visibility Wind Dir Wind Speed Gust Speed Precip Events Conditions
12:49 AM 48.2 °F - 33.8 °F 58% 30.22 in 10.0 mi South 9.2 mph - N/A   Mostly Cloudy
1:52 AM 42.8 °F 37.5 °F 33.8 °F 70% 30.21 in 10.0 mi SW 9.2 mph - N/A   Mostly Cloudy
2:48 AM 44.6 °F 40.7 °F 33.8 °F 66% 30.21 in 10.0 mi South 6.9 mph - N/A   Scattered Clouds
3:40 AM 42.8 °F 38.6 °F 33.8 °F 70% 30.20 in 10.0 mi SSW 6.9 mph - N/A   Scattered Clouds
5:43 AM 42.8 °F 38.6 °F 33.8 °F 70% 30.18 in 10.0 mi South 6.9 mph - N/A   Scattered Clouds
6:53 AM 42.8 °F 39.3 °F 33.8 °F 70% 30.19 in 10.0 mi SSW 5.8 mph - N/A   Mostly Cloudy
7:45 AM 42.8 °F 36.6 °F 35.6 °F 76% 30.20 in 10.0 mi SW 11.5 mph - N/A   Mostly Cloudy
9:49 AM 55.4 °F - 37.4 °F 51% 30.22 in 10.0 mi SW 17.3 mph - N/A   Overcast
10:40 AM 57.2 °F - 37.4 °F 48% 30.22 in 10.0 mi SW 23.0 mph - N/A   Mostly Cloudy
12:06 PM 62.6 °F - 33.8 °F 34% 30.17 in 10.0 mi SW 21.9 mph 33.4 mph N/A   Mostly Cloudy
12:40 PM 66.2 °F - 35.6 °F 32% 30.15 in 10.0 mi SW 25.3 mph - N/A   Mostly Cloudy
1:40 PM 69.8 °F - 35.6 °F 28% 30.12 in 10.0 mi WSW 28.8 mph - N/A   Mostly Cloudy
2:50 PM 69.8 °F - 35.6 °F 28% 30.10 in 10.0 mi SW 34.5 mph - N/A   Mostly Cloudy
3:40 PM 69.8 °F - 33.8 °F 27% 30.09 in 10.0 mi SW 34.5 mph - N/A   Mostly Cloudy
4:41 PM 64.4 °F - 32.0 °F 30% 30.12 in 10.0 mi SW 28.8 mph - N/A   Mostly Cloudy
5:41 PM 62.6 °F - 32.0 °F 32% 30.13 in 10.0 mi WSW 23.0 mph - N/A   Mostly Cloudy
6:40 PM 59.0 °F - 32.0 °F 36% 30.13 in 10.0 mi SW 12.7 mph - N/A   Scattered Clouds
7:41 PM 57.2 °F - 33.8 °F 41% 30.13 in 10.0 mi SSW 13.8 mph - N/A   Scattered Clouds
8:43 PM 55.4 °F - 32.0 °F 41% 30.13 in 10.0 mi SW 15.0 mph - N/A   Scattered Clouds
9:47 PM 53.6 °F - 35.6 °F 51% 30.14 in 10.0 mi WSW 16.1 mph - N/A   Scattered Clouds
10:41 PM 53.6 °F - 32.0 °F 44% 30.13 in 10.0 mi WSW 13.8 mph - N/A   Scattered Clouds
11:42 PM 51.8 °F - 33.8 °F 50% 30.14 in 10.0 mi SW 11.5 mph - N/A   Scattered Clouds